星链-36910(STARLINK-36910)

导读

STARLINK-36910(NORAD编号68005)是SpaceX星链(Starlink)星座中的一颗第二代mini(V2 Mini)卫星,隶属于SpaceX公司的全球卫星互联网组网项目。该卫星由SpaceX猎鹰9号火箭运载发射,被部署到近地轨道,为星座扩容提供支持,助力实现全球无缝覆盖的高速卫星互联网服务,满足偏远地区网络接入、移动网络增强等需求。作为星链批量发射组网的一员,它延续了星链卫星的设计,支持星间链路技术,目前处于在轨运行状态,是SpaceX构建的近万颗卫星星座中活跃的在轨单元之一。

基本信息
目录编号:
68005
目录名称:
STARLINK-36910
国际标识:
2026-039V
轨道中心:
EARTH
卫星名称:
星链-36910
卫星全名:
星链-36910(STARLINK-36910)
卫星状态:
在轨 (已飞行196 天)
发射日期:
2026-02-27 UTC
国别 :
美国 (US)
星等 :
--
该卫星已列入 空间交会检测服务 Space Conjunction Data Service (SCDS) ,当前飞行风险评估等级: 无高风险
轨道信息
数据来源 国际轨道数据
星历时间: 2026-09-11T06:47:37+0800
19小时前
查看轨道信息
半长轴: 6861.127km
偏心率: 0.0002055
轨道倾角: 42.999°
近地点辐角 275.483°
升交点赤经 82.926°
平近点角 84.579°
近地点: 481.58km
远地点: 484.4km
周期: 94.266分钟
每日圈数: 15.276
详细信息
固有亮度:
5
最大亮度:
2.5
卫星平台:
Starlink V1.0
覆盖范围:
全球
运营商:
太空探索技术公司
运营商所在国:
美国
制造商(研发单位):
太空探索技术公司
制造商所在国:
美国
使用方式:
暂无
卫星简介
Starlink 计划是 SpaceX 推出的全球卫星互联网项目,通过发射低轨道卫星,为全球尤其是偏远地区提供高速、低延迟的互联网服务。自 2019 年起,Starlink 已部署数千颗卫星,旨在缩小全球数字鸿沟,推动互联网普及。该项目还为军事、航空等行业提供通信支持,带来广泛经济效益。
2D轨道图
3D轨道图
轨道高度分析图
轨道倾角分析图
轨道综合分析图
查看轨道综合分析图
交会数据列表
事件ID 空间交会对象 最接近时刻(TCA) 交会距离 交会风险概率(CRP) 交会风险指数(CRI) 操作
CDM_260913-020905-946206-800521
2026-09-13T
02:09:44+0000
0.452 km
远距离
6.86589E-5 中风险 0.72
CDM_260913-220605-652906-800521
2026-09-13T
22:06:38+0000
0.714 km
远距离
6.238064E-5 中风险 0.71
CDM_260913-153806-433306-800521
2026-09-13T
15:38:47+0000
0.644 km
远距离
6.117814E-5 中风险 0.71
CDM_260913-030805-923206-800521
2026-09-13T
03:08:10+0000
0.901 km
远距离
2.422565E-5 中风险 0.63
CDM_260913-025605-946206-800521
2026-09-13T
02:56:48+0000
0.667 km
远距离
2.17124E-5 中风险 0.62
CDM_260911-115006-342506-800521
2026-09-11T
11:50:08+0000
1.136 km
极远距离
8.206892E-6 低风险 0.53
CDM_260911-101506-342506-800521
2026-09-11T
10:15:58+0000
1.298 km
极远距离
5.214809E-6 低风险 0.49
CDM_260913-013405-923206-800521
2026-09-13T
01:34:01+0000
1.516 km
极远距离
4.146532E-6 低风险 0.47
CDM_260913-180205-923206-800522
2026-09-13T
18:02:37+0000
1.597 km
极远距离
3.520777E-6 低风险 0.46
CDM_260913-203205-652906-800521
2026-09-13T
20:32:29+0000
1.856 km
极远距离
2.737137E-6 低风险 0.44
与全量物体交会距离演化趋势
与全量物体交会风险概率演化趋势